Regional Weather Roundup
Issued by NWS Newport/Morehead, NC

Current Version | Previous Version | Text Only | Print | Product List | Glossary Off
Versions: 1 2 3 4 5 6 7 8 9 10 11 12 13 14 15 16 17 18 19 20 21 22 23 24 25 26 27 28 29 30 31 32 33 34 35 36 37 38 39 40 41 42 43 44 45 46 47 48 49 50
000 ASUS42 KMHX 280925 RWRMHX WEATHER ROUNDUP FOR EASTERN NORTH CAROLINA NATIONAL WEATHER SERVICE NEWPORT/MOREHEAD CITY NC 500 AM EDT WED JUN 28 2017 NOTE: "FAIR" INDICATES FEW OR NO CLOUDS BELOW 12,000 FEET WITH NO SIGNIFICANT WEATHER AND/OR OBSTRUCTIONS TO VISIBILITY NCZ015>017-031-032-045>047-102-103-281000- NORTH COAST CITY SKY/WX TMP DP RH WIND PRES REMARKS EDENTON CLEAR 63 58 84 CALM 30.12S ELIZABETH CITY CLEAR 62 60 93 W5 30.10R KITTY HAWK SUNNY 70 58 66 CALM 30.09R MANTEO CLEAR 68 59 74 N3 30.10R $$ NCZ045>047-081-094-103-104-281000- CENTRAL COAST CITY SKY/WX TMP DP RH WIND PRES REMARKS FRISCO NOT AVBL $$ NCZ095-097-098-100-101-281000- SOUTHERN COAST CITY SKY/WX TMP DP RH WIND PRES REMARKS BEAUFORT CLEAR 69 62 78 NE6 30.10R CEDAR ISLAND NOT AVBL JACKSONVILLE CLEAR 65 63 93 CALM 30.11R PINEY ISLAND SUNNY N/A N/A N/A N8 30.09R WILMINGTON CLEAR 67 59 75 NE5 30.10R $$ NCZ011>013-027>030-043-044-078>080-089-090>093-098-281000- COASTAL PLAIN CITY SKY/WX TMP DP RH WIND PRES REMARKS AHOSKIE N/A 57 55 92 CALM 30.14R CLINTON CLEAR 60 60 99 CALM 30.13R ELIZABETHTOWN NOT AVBL GOLDSBORO CLEAR 62 61 97 CALM 30.11R GREENVILLE CLEAR 59 59 100 CALM 30.13R HAVELOCK CLEAR 68 58 70 CALM 30.11 KENANSVILLE CLEAR 57 55 94 CALM 30.13R KINSTON CLEAR 56 55 97 CALM 30.13R NEW BERN CLEAR 62 61 96 CALM 30.12R RICHLANDS CLEAR 60 59 96 CALM 30.12R ROCKY MOUNT CLEAR 63 57 81 N8 30.13R WASHINGTON N/A N/A N/A N/A CALM 30.12R WHITEVILLE CLEAR 63 61 94 CALM 30.11S $$ AMZ130-135-150-152-154-156-158-170-250-252-270-ANZ085-086-088-633-658-670-281000- MARINE OBSERVATIONS STATION/POSITION TIME TEMP WIND PRES WAVE SWELL AIR SEA DIR/SP/G HT/PER HT/PER (UTC) (F) (DEG/KT/KT) (MB) (FT/S) (FT/S) CHESAPEAKE LIGHT NOT AVBL 64 E VA BEACH 0850 74 74 360/ 2/ 4 1019.3 1/ 8 2/ 8 DUCK 0900 72 72 330/ 9/ 10 1018.6 2 E DUCK NOT AVBL OREGON INLET 0900 69 73 340/ 3/ 4 1018.7 13E OREGON INLT 0848 75 N/A 2/ 6 2/ 6 HATTERAS CG 0900 77 79 20/ 10/ 14 1018.6 DIAMOND BUOY 0850 76 80 360/ 12/ 14 1018.4 2/ 3 2/ 6 CAPE LOOKOUT 0900 75 10/ 9/ 11 1018.9 BEAUFORT LAB 0900 72 79 20/ 5/ 7 1018.5 30 SE NEW RVR IN 0908 77 80 30/ 14/ 19 1019.1 30 SE NEW RVR IN 0913 80 N/A 3/ 4 27 SE WRIGHTSVLE 0908 78 80 60/ 16/ 21 1018.0 5 SE WRIGHTSVLE 0908 76 79 50/ 12/ 19 1019.2 225 S CAPE HAT 0850 79 80 300/ 6/ 8 1017.3 3/ 6 3/ 6 41 SE CHARLESTON 0910 79 81 20/ 10/ 12 1017.8 $$

USA.gov is the U.S. government's official web portal to all federal, state and local government web resources and services.